Hourly Data Report for October 29, 2013

All times are specified in Local Standard Time (LST). Add 1 hour to adjust for Daylight Saving Time where and when it is observed.

FREDERICTON
NEW BRUNSWICK

45°52'08.000" N
66°32'14.000" W
20.70 m
8101505
71700
YFC

Download Data

Hourly Data (October 2013)
Hourly Data Report for October 29, 2013
Temp Definition
°C
Dew Point Temp Definition
°C
Rel Hum Definition
%
Wind Dir Definition
10's deg

Wind Spd Definition
km/h
Visibility Definition
km
Stn Press Definition
kPa
Hmdx Definition


Wind Chill Definition


Weather Definition


TIME
00:00 Legend Double Dagger -0.9 -1.6 95 26 4 16.1 102.26   -2 LegendNANA
01:00 Legend Double Dagger -1.2 -2.5 91 27 11 16.1 102.28   -5 LegendNANA
02:00 Legend Double Dagger -2.0 -2.9 94 27 9 16.1 102.32   -5 LegendNANA
03:00 Legend Double Dagger -2.0 -3.4 90 26 5 16.1 102.34   -4 LegendNANA
04:00 Legend Double Dagger -3.9 -4.6 95 16 9 16.1 102.39   -8 LegendNANA
05:00 Legend Double Dagger -3.6 -4.4 94 19 4 16.1 102.45   -5 LegendNANA
06:00 Legend Double Dagger -4.5 -5.1 96 19 5 16.1 102.51   -7 LegendNANA
07:00 Legend Double Dagger -5.2 -5.7 96 20 8 16.1 102.55   -9 LegendNANA
08:00 Legend Double Dagger -3.7 -4.4 95 21 8 16.1 102.62   -7 LegendNANA
09:00 Legend Double Dagger -0.7 -2.3 89 22 8 16.1 102.67   -4 LegendNANA
10:00 Legend Double Dagger 1.6 -2.6 74 28 11 16.1 102.65     LegendNANA
11:00 Legend Double Dagger 2.6 -3.0 67 30 13 16.1 102.64     LegendNANA
12:00 Legend Double Dagger 3.8 -3.3 60 28 9 16.1 102.59     LegendNANA
13:00 Legend Double Dagger 4.3 -3.7 56 30 17 16.1 102.50     LegendNANA
14:00 Legend Double Dagger 4.5 -4.9 51 30 15 16.1 102.46     LegendNANA
15:00 Legend Double Dagger 4.4 -5.5 49 31 18 16.1 102.51     LegendNANA
16:00 Legend Double Dagger 3.6 -4.9 54 31 21 16.1 102.53     LegendNANA
17:00 Legend Double Dagger 2.1 -4.9 60 31 11 16.1 102.56     LegendNANA
18:00 Legend Double Dagger -0.2 -5.6 67 27 5 16.1 102.57   -2 LegendNANA
19:00 Legend Double Dagger -1.1 -4.6 77 30 4 16.1 102.61   -2 LegendNANA
20:00 Legend Double Dagger -1.3 -5.4 74 31 5 16.1 102.65   -3 LegendNANA
21:00 Legend Double Dagger -3.5 -5.1 89 18 5 16.1 102.61   -6 LegendNANA
22:00 Legend Double Dagger -3.3 -5.3 86 20 5 16.1 102.61   -5 LegendNANA
23:00 Legend Double Dagger -3.6 -4.7 92   0 16.1 102.59     LegendNANA

Notes on Data Quality.

Legend

  • E = Estimated
  • M = Missing
  • NA = Not Available
  • ‡ = Partner data that is not subject to review by the National Climate Archives
Date modified: